Regional Weather Roundup
Issued by NWS Northern Indiana

Home | Current Version | Previous Version | Text Only | Print | Product List | Glossary Off
Versions: 1 2 3 4 5 6 7 8 9 10 11 12 13 14 15 16 17 18 19 20 21 22 23 24 25 26 27 28 29 30 31 32 33 34 35 36 37 38 39 40 41 42 43 44 45 46 47 48 49 50

000
ASUS43 KIWX 290800
RWRIWX

KIWX WEATHER ROUNDUP
NATIONAL WEATHER SERVICE NORTHERN INDIANA
300 AM EST THU JAN 29 2015

NOTE: "FAIR" INDICATES FEW OR NO CLOUDS BELOW 12,000 FEET WITH NO
SIGNIFICANT WEATHER AND/OR OBSTRUCTIONS TO VISIBILITY.

* THESE STATIONS ARE NOT UNDER NWS QUALITY CONTROL. THEY ALSO MAY NOT
  REPORT WEATHER SUCH AS PRECIPITATION OR FOG.

INZ001>027-290900-
NORTHERN INDIANA

CITY           SKY/WX    TMP DP  RH WIND       PRES   REMARKS
SOUTH BEND     CLOUDY    34  24  67 S16       29.84F WCI  24
GOSHEN         FRZ RAIN  32  24  72 S15       29.87F WCI  22
ANGOLA*        MOCLDY    28  21  74 S10       29.91F WCI  19
FORT WAYNE     CLOUDY    32  21  64 SE10      29.93F WCI  24
PERU/GRISSOM   CLOUDY    35  24  63 SE14      29.86F WCI  25

$$
INZ028>050-290900-
CENTRAL INDIANA

CITY           SKY/WX    TMP DP  RH WIND       PRES   REMARKS
LAFAYETTE      CLOUDY    37  22  54 S10       29.83F
KOKOMO*        CLOUDY    34  23  64 S21G26    29.87F WCI  22
MUNCIE*        CLOUDY    36  20  52 S17G26    29.91F
INDIANAPOLIS   CLOUDY    34  19  54 S13       29.90F WCI  25

$$
MIZ043>046-050>051-056>058-064>065-071>073-077>080-290900-
SOUTHWEST LOWER MICHIGAN

CITY           SKY/WX    TMP DP  RH WIND       PRES   REMARKS
BATTLE CREEK   MIX PCPN  31  21  66 S15       29.87F WCI  20
BENTON HARBOR  CLOUDY    31  25  78 S12       29.82F WCI  22
COLDWATER*     FLURRIES  30  20  66 S14       29.90F WCI  20
HILLSDALE*     CLOUDY    26  18  72 S13G18    29.91F WCI  15
HOLLAND        MIX PCPN  31  23  72 SE12      29.85F WCI  22
GRAND RAPIDS   MIX PCPN  29  21  72 S10       29.88F WCI  20
KALAMAZOO      CLOUDY    30  22  72 S9        29.87F WCI  22
STURGIS*       MIX PCPN  30  21  69 S14G20    29.87F WCI  20
THREE RIVERS*  FLURRIES  31  24  73 S13G18    29.87F WCI  21

$$
OHZ001>008-015>018-024>025-290900-
NORTHWEST OHIO

CITY           SKY/WX    TMP DP  RH WIND       PRES   REMARKS
DEFIANCE       CLOUDY    30  19  63 S8        29.98F WCI  22
FINDLAY        CLOUDY    29  18  63 S20       30.00F WCI  16
TOLEDO EXPRESS CLOUDY    27  17  66 SE8       30.00F WCI  19
TOLEDO METCALF CLOUDY    29  18  63 S13       30.03F WCI  19
LIMA           CLOUDY    30  20  66 S20       29.98F WCI  17

$$
AND FOR LAKE MICHIGAN COASTAL AND OPEN LAKE BUOY OBSERVATIONS

STATION/POSITION TEMP    WIND        PRES    VSBY  WAVE
                 AIR SEA DIR/SP/G                  HT/PER
                 (F)     (DEG/KT/KT) (MB)    (MI)  (FT/S)
CALUMET HARBOR    35     160/  9/ 12   N/A
MICHIGAN CITY     35     140/ 14/ 21   N/A
SAINT JOSEPH      32     150/  5/ 14 1011.5F

$$
&&



USA.gov is the U.S. government's official web portal to all federal, state and local government web resources and services.